Location: Unspecified
(48.5670°N, 0.0000°E)
Time: 11:20:11
(UTC+00:00)

Vanguard 2 Rocket - Pass Details

Date: 26 August 2019
Orbit: 554 x 3327 km, 32.9° (Epoch: 19 September)

Event Time Altitude Azimuth Distance (km) Brightness Sun altitude
Rises 08:52:01 0° 273° (W) 6,737 10.9 35.2°
Reaches altitude 10° 08:58:18 10° 258° (WSW) 6,034 10.8 36.1°
Maximum altitude 09:09:47 19° 222° (SW) 5,501 11.0 37.7°
Drops below altitude 10° 09:21:28 10° 185° (S) 6,084 11.6 39.3°
Sets 09:28:00 0° 170° (S) 6,800 11.9 40.2°
